Arcata, CA

11:11 PM PDT on April 25, 2018 (GMT -0700)
Arcata

Weather History for KACV - August, 2013

Change the Weather History Date:

Thursday, August 1, 2013

  Actual Average Record
Temperature  
Mean Temperature 58 °F -  
Max Temperature 62 °F 61 °F 69 °F (2003)
Min Temperature 53 °F 50 °F 45 °F (2001)
Degree Days  
Heating Degree Days 8    
Growing Degree Days 8 (Base 50)    
Moisture  
Dew Point 53 °F    
Average Humidity 88    
Maximum Humidity 100    
Minimum Humidity 75    
Precipitation  
Precipitation 0.00 in - - ()
Sea Level Pressure  
Sea Level Pressure 30.14 in    
Wind  
Wind Speed 5 mph (NNW)    
Max Wind Speed 13 mph    
Max Gust Speed -    
Visibility 8 miles    
Events Fog    
Averages and records for this station are not official NWS values.
T = Trace of Precipitation, MM = Missing Value Source: NWS Daily Summary

Daily Weather History Graph

Daily Weather History Graph

Search for Another Location

Airport or City:

Astronomy

Aug. 01, 2013 Rise Set
Actual Time 6:12 AM PDT 8:32 PM PDT
Civil Twilight 5:41 AM PDT 9:02 PM PDT
Nautical Twilight 5:03 AM PDT 9:40 PM PDT
Astronomical Twilight 4:21 AM PDT 10:22 PM PDT
Moon 1:52 AM PDT (8/1) 4:46 PM PDT (8/1)
Length of Visible Light 15h 20m
Length of Day
14h 19m
Waning Crescent, 22% of the Moon is Illuminated
Aug 1
Waning Crescent
Aug 6
New
Aug 14
First Quarter
Aug 20
Full
Aug 28
Last Quarter

Hourly Weather History & Observations

Time (PDT) Temp. Dew Point Humidity Pressure Visibility Wind Dir Wind Speed Gust Speed Precip Events Conditions
12:53 AM 55.0 °F 51.1 °F 86% 30.13 in 10.0 mi Calm Calm - N/A   Overcast
1:53 AM 54.0 °F 52.0 °F 93% 30.13 in 10.0 mi NNW 3.5 mph - N/A   Overcast
2:53 AM 55.0 °F 52.0 °F 89% 30.12 in 10.0 mi Calm Calm - N/A   Overcast
3:53 AM 55.0 °F 51.1 °F 86% 30.12 in 10.0 mi Calm Calm - N/A   Overcast
4:53 AM 55.0 °F 51.1 °F 86% 30.13 in 10.0 mi Calm Calm - N/A   Overcast
5:53 AM 55.0 °F 52.0 °F 89% 30.13 in 10.0 mi Calm Calm - N/A   Overcast
6:53 AM 55.0 °F 53.1 °F 93% 30.14 in 10.0 mi Calm Calm - N/A   Overcast
7:53 AM 57.0 °F 53.1 °F 87% 30.14 in 10.0 mi Calm Calm - N/A   Overcast
8:53 AM 57.9 °F 53.1 °F 84% 30.14 in 10.0 mi NW 5.8 mph - N/A   Overcast
9:53 AM 59.0 °F 54.0 °F 83% 30.15 in 10.0 mi NNW 8.1 mph - N/A   Overcast
10:53 AM 59.0 °F 54.0 °F 83% 30.15 in 10.0 mi NW 9.2 mph - N/A   Overcast
11:53 AM 59.0 °F 54.0 °F 83% 30.17 in 10.0 mi NW 11.5 mph - N/A   Overcast
12:53 PM 60.1 °F 54.0 °F 80% 30.17 in 10.0 mi NW 10.4 mph - N/A   Overcast
1:53 PM 60.1 °F 54.0 °F 80% 30.18 in 10.0 mi NNW 12.7 mph - N/A   Overcast
2:53 PM 62.1 °F 54.0 °F 75% 30.17 in 10.0 mi NNW 11.5 mph - N/A   Overcast
3:53 PM 61.0 °F 54.0 °F 78% 30.17 in 10.0 mi NW 12.7 mph - N/A   Overcast
4:53 PM 62.1 °F 54.0 °F 75% 30.15 in 10.0 mi NNW 11.5 mph - N/A   Overcast
5:53 PM 59.0 °F 53.1 °F 81% 30.15 in 10.0 mi NNW 12.7 mph - N/A   Mostly Cloudy
6:53 PM 59.0 °F 53.1 °F 81% 30.14 in 10.0 mi NNW 12.7 mph - N/A   Overcast
7:53 PM 57.0 °F 53.1 °F 87% 30.14 in 10.0 mi NNW 12.7 mph - N/A   Clear
8:53 PM 54.0 °F 52.0 °F 93% 30.15 in 10.0 mi Calm Calm - N/A   Clear
9:53 PM 54.0 °F 52.0 °F 93% 30.15 in 9.0 mi NNW 8.1 mph - N/A   Partly Cloudy
10:00 PM 53.6 °F 51.8 °F 94% 30.13 in 4.0 mi North 9.2 mph - N/A   Scattered Clouds
10:53 PM 53.1 °F 52.0 °F 96% 30.15 in 10.0 mi North 6.9 mph - N/A   Clear
11:17 PM 53.6 °F 51.8 °F 94% 30.13 in 8.0 mi NNW 9.2 mph - N/A   Scattered Clouds
11:24 PM 53.6 °F 51.8 °F 94% 30.13 in 2.5 mi NNW 9.2 mph - N/A   Mostly Cloudy
11:30 PM 53.6 °F 53.6 °F 100% 30.13 in 0.8 mi NNW 10.4 mph - N/A   Mist
11:35 PM 53.6 °F 53.6 °F 100% 30.13 in 0.2 mi NNW 10.4 mph - N/A Fog Fog
11:45 PM 53.6 °F 51.8 °F 94% 30.13 in 0.2 mi North 10.4 mph - N/A Fog Fog
11:53 PM 53.1 °F 52.0 °F 96% 30.15 in 0.2 mi NNW 10.4 mph - N/A Fog Fog